Starlink 5129

operational
NORAD ID: 54004 Int'l Des: 2022-125 Owner: SPXS Country: US Constellation: starlink
LEOCIRCULAR

Über Starlink 5129

Beschreibung wird geladen...

Live-Position

3D-Globus wird geladen...

Nächste Überflüge

Höhenverlauf

Altitude vs Time

uPlot chart will show altitude changes over time

Zweizeiliger Elementsatz

1 54004U 22125AS 25307.67865698 .00005290 00000-0 35025-3 0 9991
2 54004 53.2178 59.4868 0001501 106.6015 253.5142 15.08838157170441
Epoch: 3. Nov. 2025 • Age: 11 hours

Aktueller Status

Höhe 552.2 km
Geschwindigkeit 7.59 km/s
Subsatellitenpunkt -37.09°S, 174.42°W
Startdatum 5. Okt. 2022
Alter 3 years
Typ internet

Technische Details

Klassifizierung Payload
Masse 305.00 kg
Trockenmasse 290.00 kg
Gesamtmasse 305.00 kg
Länge 0.20 m
Durchmesser 2.80 m
Spannweite 9.00 m
Form Box + pan
Hersteller SPXS
Bus-Typ Starlink
Phasenstatus In Orbit
Besitzer/Staat SPXS/US

Große Konstellationen

Loading constellations...